Weather History for KDEN - January, 2014

Change the Weather History Date:

Tuesday, January 21, 2014

  Actual Average Record
Temperature  
Mean Temperature 44 °F 31 °F  
Max Temperature 63 °F 44 °F 71 °F (2009)
Min Temperature 25 °F 17 °F -15 °F (1930)
Degree Days  
Heating Degree Days 21 34  
Month to date heating degree days 691 719  
Since 1 July heating degree days 3142 3187  
Cooling Degree Days 0 0  
Month to date cooling degree days 0 0  
Year to date cooling degree days 0 0  
Moisture  
Dew Point 1 °F    
Average Humidity 39    
Maximum Humidity 74    
Minimum Humidity 3    
Precipitation  
Precipitation 0.00 in 0.02 in 0.46 in (1974)
Month to date precipitation 0.48 0.28  
Year to date precipitation 0.48 0.28  
Snow  
Snow 0.00 in - - ()
Month to date snowfall 6.2  
Since 1 July snowfall 14.3  
Snow Depth 0.00 in    
Sea Level Pressure  
Sea Level Pressure 30.13 in    
Wind  
Wind Speed 16 mph (SW)    
Max Wind Speed 26 mph    
Max Gust Speed 32 mph    
Visibility 10 miles    
Events      
T = Trace of Precipitation, MM = Missing Value Source: NWS Daily Summary

Daily Weather History Graph

Daily Weather History Graph

Search for Another Location

Airport or City:

Trip Planner

Search our weather history database for the weather conditions in past years. The results will help you decide how hot, cold, wet, or windy it might be!

Date:

Astronomy

Jan. 21, 2014 Rise Set
Actual Time 7:15 AM MST 5:05 PM MST
Civil Twilight 6:45 AM MST 5:34 PM MST
Nautical Twilight 6:12 AM MST 6:07 PM MST
Astronomical Twilight 5:40 AM MST 6:39 PM MST
Moon 10:39 PM MST (1/21) 9:46 AM MST (1/21)
Length of Visible Light 10h 48m
Length of Day
9h 50m
Waning Gibbous, 74% of the Moon is Illuminated
Jan 21
Waning Gibbous
Jan 23
Last Quarter
Jan 30
New
Feb 6
First Quarter
Feb 14
Full

Hourly Weather History & Observations

Time (MST) Temp. Windchill Dew Point Humidity Pressure Visibility Wind Dir Wind Speed Gust Speed Precip Events Conditions
12:53 AM 27.0 °F 16.7 °F 16.0 °F 63% 30.32 in 10.0 mi SSW 11.5 mph - N/A   Clear
1:53 AM 32.0 °F 20.5 °F 12.0 °F 44% 30.25 in 10.0 mi SSW 18.4 mph - N/A   Clear
2:53 AM 32.0 °F 20.8 °F 10.0 °F 40% 30.22 in 10.0 mi SSW 17.3 mph - N/A   Clear
3:53 AM 30.9 °F 19.1 °F 8.1 °F 38% 30.21 in 10.0 mi SSW 18.4 mph - N/A   Clear
4:53 AM 32.0 °F 20.8 °F 5.0 °F 32% 30.19 in 10.0 mi SW 17.3 mph - N/A   Clear
5:53 AM 32.0 °F 22.1 °F 3.0 °F 29% 30.18 in 10.0 mi SW 13.8 mph - N/A   Clear
6:53 AM 33.1 °F 23.0 °F 1.0 °F 26% 30.22 in 10.0 mi SW 15.0 mph - N/A   Partly Cloudy
7:53 AM 37.9 °F 29.2 °F -2.0 °F 18% 30.20 in 10.0 mi SW 15.0 mph - N/A   Partly Cloudy
8:53 AM 46.0 °F 40.6 °F -2.0 °F 14% 30.18 in 10.0 mi WSW 11.5 mph - N/A   Partly Cloudy
9:53 AM 54.0 °F - -5.1 °F 9% 30.14 in 10.0 mi West 16.1 mph - N/A   Partly Cloudy
10:53 AM 59.0 °F - -11.9 °F 5% 30.11 in 10.0 mi West 23.0 mph 31.1 mph N/A   Partly Cloudy
11:53 AM 62.1 °F - -18.0 °F 4% 30.05 in 10.0 mi West 23.0 mph - N/A   Partly Cloudy
12:53 PM 62.1 °F - -16.1 °F 4% 30.02 in 10.0 mi WNW 21.9 mph 27.6 mph N/A   Partly Cloudy
1:53 PM 62.1 °F - -17.0 °F 4% 29.99 in 10.0 mi WNW 23.0 mph 32.2 mph N/A   Clear
2:53 PM 62.1 °F - -13.0 °F 4% 30.00 in 10.0 mi West 20.7 mph 24.2 mph N/A   Clear
3:53 PM 61.0 °F - -11.9 °F 5% 30.01 in 10.0 mi NW 12.7 mph - N/A   Clear
4:53 PM 50.0 °F - -0.9 °F 12% 30.05 in 10.0 mi ENE 8.1 mph 20.7 mph N/A   Clear
5:53 PM 39.9 °F 32.9 °F 6.1 °F 25% 30.11 in 10.0 mi ESE 11.5 mph - N/A   Clear
6:53 PM 37.9 °F 30.0 °F 7.0 °F 28% 30.13 in 10.0 mi SE 12.7 mph - N/A   Clear
7:53 PM 32.0 °F 21.6 °F 10.0 °F 40% 30.14 in 10.0 mi SE 15.0 mph - N/A   Clear
8:53 PM 28.9 °F 17.3 °F 10.9 °F 47% 30.12 in 10.0 mi SE 16.1 mph - N/A   Clear
9:53 PM 28.0 °F 16.5 °F 10.9 °F 49% 30.10 in 10.0 mi SE 15.0 mph - N/A   Clear
10:53 PM 26.1 °F 15.0 °F 10.9 °F 53% 30.09 in 10.0 mi SSE 12.7 mph - N/A   Clear
11:53 PM 27.0 °F 16.7 °F 10.9 °F 51% 30.08 in 10.0 mi South 11.5 mph - N/A   Clear